Altus AFB, OK

2:43 AM CST on January 22, 2017 (GMT -0600)
Altus Air Force Base

Weather History for KLTS - February, 2014

Change the Weather History Date:

Monday, February 24, 2014

  Actual Average Record
Temperature  
Mean Temperature 39 °F -  
Max Temperature 50 °F 54 °F 63 °F (2016)
Min Temperature 28 °F 31 °F 20 °F (2015)
Degree Days  
Heating Degree Days 26    
Moisture  
Dew Point 28 °F    
Average Humidity 67    
Maximum Humidity 99    
Minimum Humidity 50    
Precipitation  
Precipitation 0.00 in - - ()
Sea Level Pressure  
Sea Level Pressure 30.14 in    
Wind  
Wind Speed 11 mph (ENE)    
Max Wind Speed 18 mph    
Max Gust Speed -    
Visibility 10 miles    
Events      
Averages and records for this station are not official NWS values.
T = Trace of Precipitation, MM = Missing Value Source: NWS Daily Summary

Daily Weather History Graph

Daily Weather History Graph

Search for Another Location

Airport or City:

Trip Planner

Search our weather history database for the weather conditions in past years. The results will help you decide how hot, cold, wet, or windy it might be!

Date:

Astronomy

Feb. 24, 2014 Rise Set
Actual Time 7:12 AM CST 6:28 PM CST
Civil Twilight 6:46 AM CST 6:54 PM CST
Nautical Twilight 6:17 AM CST 7:23 PM CST
Astronomical Twilight 5:48 AM CST 7:52 PM CST
Moon 3:05 AM CST (2/24) 1:38 PM CST (2/24)
Length of Visible Light 12h 07m
Length of Day
11h 16m
Waning Crescent, 28% of the Moon is Illuminated
Feb 24
Waning Crescent
Mar 1
New
Mar 8
First Quarter
Mar 16
Full
Mar 23
Last Quarter

Hourly Weather History & Observations

Time (CST) Temp. Windchill Dew Point Humidity Pressure Visibility Wind Dir Wind Speed Gust Speed Precip Events Conditions
12:58 AM 32.5 °F 23.2 °F 21.7 °F 64% 30.18 in 10.0 mi NE 12.7 mph - N/A   Clear
1:58 AM 31.5 °F 21.4 °F 21.7 °F 67% 30.17 in 10.0 mi NE 13.8 mph - N/A   Clear
2:58 AM 31.3 °F 19.9 °F 22.1 °F 69% 30.18 in 10.0 mi NNE 17.3 mph - N/A   Clear
3:58 AM 30.7 °F 19.2 °F 22.8 °F 72% 30.18 in 10.0 mi NNE 17.3 mph - N/A   Clear
4:58 AM 30.0 °F 19.1 °F 22.8 °F 75% 30.18 in 10.0 mi NE 15.0 mph - N/A   Clear
5:58 AM 29.1 °F 17.5 °F 22.3 °F 76% 30.19 in 10.0 mi NNE 16.1 mph - N/A   Clear
6:58 AM 28.6 °F 16.0 °F 21.6 °F 75% 30.20 in 10.0 mi NNE 18.4 mph - N/A   Clear
7:58 AM 28.6 °F 17.2 °F 20.3 °F 71% 30.22 in 10.0 mi NNE 15.0 mph - N/A   Clear
8:28 AM 28.4 °F 18.0 °F 21.2 °F 74% 30.20 in 10.0 mi NNE 12.7 mph - N/A   Mostly Cloudy
8:58 AM 30.0 °F 20.0 °F 20.7 °F 68% 30.23 in 10.0 mi NNE 12.7 mph - N/A   Overcast
9:38 AM 32.0 °F 23.0 °F 23.0 °F 69% 30.21 in 10.0 mi NNE 11.5 mph - N/A   Overcast
9:58 AM 33.6 °F 26.2 °F 22.8 °F 65% 30.24 in 10.0 mi NNE 9.2 mph - N/A   Overcast
10:08 AM 33.8 °F 27.0 °F 23.0 °F 65% 30.21 in 10.0 mi NNE 8.1 mph - N/A   Overcast
10:33 AM 35.6 °F 29.9 °F 24.8 °F 65% 30.21 in 10.0 mi NE 6.9 mph - N/A   Overcast
10:58 AM 39.6 °F 36.3 °F 26.4 °F 59% 30.22 in 10.0 mi NE 4.6 mph - N/A   Overcast
11:18 AM 41.0 °F - 26.6 °F 57% 30.20 in 10.0 mi Calm Calm - N/A   Overcast
11:58 AM 41.7 °F 37.3 °F 28.2 °F 59% 30.22 in 10.0 mi NE 6.9 mph - N/A   Overcast
12:58 PM 44.8 °F 41.6 °F 30.2 °F 57% 30.16 in 10.0 mi East 5.8 mph - N/A   Overcast
1:58 PM 47.5 °F - 32.0 °F 55% 30.11 in 10.0 mi ESE 4.6 mph - N/A   Mostly Cloudy
2:08 PM 48.2 °F - 32.0 °F 54% 30.07 in 10.0 mi SSE 6.9 mph - N/A   Scattered Clouds
2:33 PM 50.0 °F - 32.0 °F 50% 30.05 in 10.0 mi SE 5.8 mph - N/A   Scattered Clouds
2:38 PM 50.0 °F - 32.0 °F 50% 30.05 in 10.0 mi Variable 3.5 mph - N/A   Mostly Cloudy
2:58 PM 49.1 °F - 33.3 °F 54% 30.06 in 10.0 mi SSE 5.8 mph - N/A   Scattered Clouds
3:03 PM 50.0 °F - 32.0 °F 50% 30.04 in 10.0 mi SE 5.8 mph - N/A   Mostly Cloudy
3:08 PM 50.0 °F - 32.0 °F 50% 30.04 in 10.0 mi SSE 8.1 mph - N/A   Scattered Clouds
3:58 PM 50.5 °F - 33.4 °F 52% 30.05 in 10.0 mi ESE 9.2 mph - N/A   Clear
4:58 PM 50.9 °F - 34.0 °F 52% 30.05 in 10.0 mi South 5.8 mph - N/A   Clear
5:58 PM 47.8 °F - 34.5 °F 60% 30.06 in 10.0 mi SE 8.1 mph - N/A   Clear
6:58 PM 40.3 °F 35.5 °F 32.5 °F 74% 30.07 in 10.0 mi SE 6.9 mph - N/A   Clear
7:58 PM 37.4 °F 33.8 °F 32.7 °F 83% 30.08 in 10.0 mi East 4.6 mph - N/A   Clear
8:58 PM 37.8 °F 32.5 °F 32.9 °F 83% 30.09 in 10.0 mi ESE 6.9 mph - N/A   Clear
9:58 PM 35.2 °F 28.8 °F 33.3 °F 92% 30.10 in 10.0 mi ESE 8.1 mph - N/A   Clear
10:58 PM 36.1 °F 30.6 °F 35.1 °F 96% 30.11 in 10.0 mi East 6.9 mph - N/A   Clear
11:58 PM 34.9 °F 27.7 °F 34.7 °F 99% 30.09 in 10.0 mi NNE 9.2 mph - N/A   Clear